Location: Karcze
(52.0945°N, 22.4786°E)
Time: 20:03:55
(UTC+00:00)

Transit 2A Rocket - Pass Details

Date: 01 August 2021
Orbit: 586 x 917 km, 66.7° (Epoch: 27 September)

Event Time Altitude Azimuth Distance (km) Brightness Sun altitude
Rises 19:03:59 0° 320° (NW) 3,157 10.4 -6.3°
Reaches altitude 10° 19:06:31 10° 330° (NNW) 2,288 8.9 -6.6°
Maximum altitude 19:11:14 32° 33° (NNE) 1,364 6.4 -7.1°
Drops below altitude 10° 19:16:18 10° 96° (E) 2,475 7.2 -7.7°
Enters shadow 19:17:41 - 102° (ESE) 2,948 7.5 -7.9°
Sets 19:19:08 0° 106° (ESE) 3,454 - -8.0°
